• In Spain
  • List of Countries
  • For 7 days
  • Water Temperature
  • Satellite Maps
  • Weather Map
  • Weather Widgets
  • user-avatar
    Login

    Hourly Weather Satif

    Today, 19 July, Thursday

    Time Temperature Precipitation Wind Pressure Humidity
    00:00 +30°C° 0 mm 1 mps 674 mmHg 34%
    01:00 +29°C° 0 mm 1 mps 674 mmHg 36%
    02:00 +29°C° 0 mm 1 mps 674 mmHg 38%
    03:00 +28°C° 0 mm 1 mps 673 mmHg 41%
    04:00 +28°C° 0 mm 1 mps 674 mmHg 40%
    05:00 +28°C° 0 mm 1 mps 674 mmHg 40%
    06:00 +29°C° 0 mm 1 mps 675 mmHg 40%
    07:00 +30°C° 0 mm 2 mps 675 mmHg 36%
    08:00 +31°C° 0 mm 2 mps 676 mmHg 33%
    09:00 +32°C° 0 mm 2 mps 676 mmHg 30%
    10:00 +35°C° 0 mm 3 mps 676 mmHg 27%
    11:00 +36°C° 0 mm 3 mps 677 mmHg 24%
    12:00 +37°C° 0 mm 3 mps 677 mmHg 21%
    13:00 +37°C° 0 mm 4 mps 677 mmHg 22%
    14:00 +37°C° 0 mm 4 mps 676 mmHg 22%
    15:00 +37°C° 0 mm 5 mps 676 mmHg 22%
    16:00 +36°C° 0 mm 4 mps 676 mmHg 23%
    17:00 +36°C° 0 mm 4 mps 676 mmHg 23%
    18:00 +35°C° 0 mm 3 mps 675 mmHg 23%
    19:00 +34°C° 0 mm 3 mps 675 mmHg 25%
    20:00 +32°C° 0 mm 2 mps 675 mmHg 27%
    21:00 +31°C° 0 mm 1 mps 676 mmHg 29%
    22:00 +30°C° 0 mm 1 mps 675 mmHg 29%
    23:00 +30°C° 0 mm 1 mps 675 mmHg 30%

    Tomorrow, 20 July, Friday

    Time Temperature Precipitation Wind Pressure Humidity
    00:00 +29°C° 0 mm 1 mps 675 mmHg 30%
    01:00 +29°C° 0 mm 1 mps 675 mmHg 29%
    02:00 +30°C° 0 mm 1 mps 675 mmHg 27%
    03:00 +30°C° 0 mm 2 mps 674 mmHg 26%
    04:00 +30°C° 0 mm 2 mps 674 mmHg 25%
    05:00 +30°C° 0 mm 2 mps 675 mmHg 24%
    06:00 +31°C° 0 mm 2 mps 675 mmHg 23%
    07:00 +32°C° 0 mm 2 mps 675 mmHg 21%
    08:00 +35°C° 0 mm 2 mps 676 mmHg 18%
    09:00 +37°C° 0 mm 3 mps 676 mmHg 16%
    10:00 +38°C° 0 mm 3 mps 676 mmHg 15%
    11:00 +40°C° 0 mm 4 mps 676 mmHg 15%
    12:00 +40°C° 0 mm 4 mps 676 mmHg 15%
    13:00 +40°C° 0 mm 4 mps 676 mmHg 16%
    14:00 +40°C° 0 mm 5 mps 676 mmHg 16%
    15:00 +40°C° 0 mm 5 mps 675 mmHg 17%
    16:00 +38°C° 0.3 mm 4 mps 675 mmHg 20%
    17:00 +37°C° 0.3 mm 4 mps 675 mmHg 23%
    18:00 +35°C° 0.3 mm 3 mps 674 mmHg 25%
    19:00 +34°C° 0.2 mm 3 mps 674 mmHg 28%
    20:00 +33°C° 0.2 mm 4 mps 675 mmHg 30%
    21:00 +32°C° 0.2 mm 4 mps 675 mmHg 33%
    22:00 +32°C° 0 mm 4 mps 674 mmHg 32%
    23:00 +30°C° 0 mm 3 mps 674 mmHg 32%

    Day after tomorrow, 21 July, Saturday

    Time Temperature Precipitation Wind Pressure Humidity
    00:00 +30°C° 0 mm 3 mps 673 mmHg 32%
    01:00 +29°C° 0 mm 3 mps 673 mmHg 32%
    02:00 +29°C° 0 mm 2 mps 673 mmHg 32%
    03:00 +28°C° 0 mm 2 mps 673 mmHg 32%
    04:00 +29°C° 0 mm 2 mps 673 mmHg 30%
    05:00 +29°C° 0 mm 3 mps 673 mmHg 29%
    06:00 +30°C° 0 mm 3 mps 674 mmHg 27%
    07:00 +32°C° 0 mm 5 mps 674 mmHg 24%
    08:00 +34°C° 0 mm 6 mps 675 mmHg 20%
    09:00 +37°C° 0 mm 8 mps 676 mmHg 16%
    10:00 +38°C° 0 mm 8 mps 676 mmHg 16%
    11:00 +39°C° 0 mm 8 mps 676 mmHg 16%
    12:00 +39°C° 0 mm 8 mps 676 mmHg 15%
    13:00 +39°C° 0 mm 8 mps 676 mmHg 15%
    14:00 +40°C° 0 mm 7 mps 675 mmHg 16%
    15:00 +40°C° 0 mm 7 mps 675 mmHg 16%
    16:00 +39°C° 0 mm 6 mps 675 mmHg 19%
    17:00 +36°C° 0 mm 6 mps 675 mmHg 21%
    18:00 +35°C° 0 mm 5 mps 674 mmHg 24%
    19:00 +34°C° 0 mm 4 mps 674 mmHg 29%
    20:00 +31°C° 0 mm 3 mps 674 mmHg 34%
    21:00 +30°C° 0 mm 2 mps 674 mmHg 38%
    22:00 +29°C° 0 mm 2 mps 674 mmHg 40%
    23:00 +29°C° 0 mm 2 mps 674 mmHg 41%

    22 July, Sunday

    Time Temperature Precipitation Wind Pressure Humidity
    00:00 +28°C° 0 mm 2 mps 674 mmHg 42%
    01:00 +28°C° 0 mm 2 mps 673 mmHg 43%
    02:00 +28°C° 0 mm 2 mps 673 mmHg 43%
    03:00 +28°C° 0 mm 2 mps 673 mmHg 44%
    04:00 +27°C° 0 mm 2 mps 673 mmHg 45%
    05:00 +27°C° 0 mm 2 mps 673 mmHg 46%
    06:00 +27°C° 0 mm 2 mps 673 mmHg 48%
    07:00 +28°C° 0 mm 2 mps 673 mmHg 44%
    08:00 +29°C° 0 mm 2 mps 673 mmHg 41%
    09:00 +30°C° 0 mm 2 mps 674 mmHg 37%
    10:00 +32°C° 0 mm 2 mps 674 mmHg 32%
    11:00 +34°C° 0 mm 2 mps 674 mmHg 27%
    12:00 +36°C° 0 mm 3 mps 674 mmHg 22%
    13:00 +35°C° 0 mm 3 mps 674 mmHg 26%
    14:00 +35°C° 0 mm 3 mps 674 mmHg 30%
    15:00 +34°C° 0 mm 4 mps 673 mmHg 34%
    16:00 +33°C° 0 mm 4 mps 673 mmHg 39%
    17:00 +30°C° 0 mm 4 mps 673 mmHg 44%
    18:00 +29°C° 0 mm 4 mps 673 mmHg 48%
    19:00 +28°C° 0 mm 4 mps 673 mmHg 54%
    20:00 +26°C° 0 mm 3 mps 673 mmHg 60%
    21:00 +25°C° 0 mm 3 mps 674 mmHg 65%
    22:00 +24°C° 0 mm 3 mps 673 mmHg 67%
    23:00 +23°C° 0 mm 2 mps 673 mmHg 69%

    23 July, Monday

    Time Temperature Precipitation Wind Pressure Humidity
    00:00 +23°C° 0 mm 2 mps 673 mmHg 70%
    01:00 +21°C° 0 mm 2 mps 673 mmHg 72%
    02:00 +21°C° 0 mm 2 mps 672 mmHg 73%
    03:00 +20°C° 0 mm 2 mps 672 mmHg 74%
    04:00 +20°C° 0 mm 2 mps 672 mmHg 72%
    05:00 +20°C° 0 mm 2 mps 672 mmHg 70%
    06:00 +21°C° 0 mm 2 mps 673 mmHg 67%
    07:00 +23°C° 0 mm 2 mps 673 mmHg 56%
    08:00 +25°C° 0 mm 2 mps 674 mmHg 45%
    09:00 +27°C° 0 mm 2 mps 674 mmHg 34%
    10:00 +28°C° 0 mm 2 mps 674 mmHg 31%
    11:00 +30°C° 0 mm 3 mps 675 mmHg 27%
    12:00 +31°C° 0 mm 3 mps 675 mmHg 24%
    13:00 +31°C° 0 mm 3 mps 675 mmHg 24%
    14:00 +33°C° 0 mm 4 mps 674 mmHg 24%
    15:00 +33°C° 0 mm 4 mps 674 mmHg 23%
    16:00 +32°C° 0 mm 4 mps 674 mmHg 26%
    17:00 +30°C° 0 mm 4 mps 674 mmHg 28%
    18:00 +29°C° 0 mm 4 mps 674 mmHg 30%
    19:00 +28°C° 0 mm 3 mps 674 mmHg 34%
    20:00 +27°C° 0 mm 3 mps 674 mmHg 37%
    21:00 +26°C° 0 mm 2 mps 674 mmHg 40%
    22:00 +26°C° 0 mm 2 mps 674 mmHg 41%
    23:00 +25°C° 0 mm 2 mps 673 mmHg 42%

    24 July, Tuesday

    Time Temperature Precipitation Wind Pressure Humidity
    00:00 +25°C° 0 mm 1 mps 673 mmHg 43%
    01:00 +24°C° 0 mm 1 mps 673 mmHg 43%
    02:00 +24°C° 0 mm 1 mps 672 mmHg 44%
    03:00 +23°C° 0 mm 1 mps 672 mmHg 44%
    04:00 +24°C° 0 mm 1 mps 672 mmHg 42%
    05:00 +25°C° 0 mm 1 mps 673 mmHg 39%
    06:00 +25°C° 0 mm 1 mps 673 mmHg 37%
    07:00 +27°C° 0 mm 1 mps 674 mmHg 32%
    08:00 +29°C° 0 mm 2 mps 674 mmHg 28%
    09:00 +30°C° 0 mm 2 mps 675 mmHg 24%
    10:00 +32°C° 0 mm 2 mps 675 mmHg 21%
    11:00 +34°C° 0 mm 2 mps 675 mmHg 19%
    12:00 +35°C° 0 mm 3 mps 675 mmHg 17%
    13:00 +35°C° 0 mm 3 mps 675 mmHg 16%
    14:00 +36°C° 0 mm 3 mps 674 mmHg 16%
    15:00 +36°C° 0 mm 3 mps 674 mmHg 15%
    16:00 +36°C° 0 mm 3 mps 674 mmHg 17%
    17:00 +35°C° 0 mm 3 mps 674 mmHg 18%
    18:00 +34°C° 0 mm 3 mps 674 mmHg 20%
    19:00 +32°C° 0 mm 2 mps 674 mmHg 22%
    20:00 +31°C° 0 mm 2 mps 674 mmHg 25%
    21:00 +29°C° 0 mm 2 mps 674 mmHg 28%
    22:00 +29°C° 0 mm 2 mps 673 mmHg 29%
    23:00 +28°C° 0 mm 1 mps 673 mmHg 30%
    Show more